Powrót do katalogu

ATLAS 2A CENTAUR R/B

AktywnyGTO
NORAD 23840·ROCKET BODY·🇺🇸 United States

Wystrzelony Apr 3, 1996 z Cape Canaveral Space Force Station

Loading…

TLE

NieaktualneSource: Space-Track

Epoka: Sep 14, 2026, 02:00 UTC

1 23840U 96020B   26257.08354407 -.00000103  00000-0  18515-2 0  9994
2 23840  21.6486  59.5443 6997625 334.7509   3.1252  2.24210119249494

Śledź ATLAS 2A CENTAUR R/B w czasie rzeczywistym z AllMySat

Download on the App Store